Location: Winter Haven
(28.0220°N, 81.7330°W)
Time: 10:13:05
(UTC-05:00)

Amateur Radio Satellites - All Passes

Search period start: 04 March 2015 09:43
Search period end: 05 March 2015 09:43
Location: Winter Haven, 28.0220°N, 81.7330°W

Satellite Date Start Highest point End Downlink Frequencies (MHz)
Time Altitude Azimuth
UWE-3 04 Mar 09:46:53 09:50:28 28° 97° (E) 09:54:08 435.000/436.395/437.385
NANOSAT C BR1 04 Mar 09:55:30 09:58:04 16° 72° (ENE) 10:00:50 145.865
GOMX 1 04 Mar 09:57:32 10:00:59 24° 287° (WNW) 10:04:17 467.674
SO-50 04 Mar 09:57:59 10:01:15 18° 53° (NE) 10:04:40 436.795
BRITE-PL 04 Mar 10:02:40 10:05:01 14° 290° (WNW) 10:07:05 437.365/2234.400
AAUSAT CUBESAT 2 04 Mar 10:04:42 10:08:33 35° 285° (WNW) 10:12:21 437.432
COMPASS 1 04 Mar 10:08:54 10:12:30 27° 286° (WNW) 10:16:01 437.405
Oscar 11 04 Mar 10:09:20 10:13:40 77° 283° (WNW) 10:17:59 145.826/435.025
CINEMA 3 04 Mar 10:18:48 10:22:41 40° 285° (WNW) 10:26:35 145.822/145.860
DOVE 4 04 Mar 10:24:42 10:27:30 17° 288° (WNW) 10:30:08 437.250
QB50P1 04 Mar 10:27:16 10:31:17 41° 75° (ENE) 10:35:20 145.935-145.965
CUBEBUG 2 04 Mar 10:27:37 10:31:43 63° 283° (WNW) 10:35:52 437.445
UNISAT 6 04 Mar 10:28:25 10:32:53 89° 79° (E) 10:37:15 437.425
50 SAT 04 Mar 10:28:26 10:31:34 23° 96° (E) 10:34:47 437.505
BUGSAT 1 04 Mar 10:28:46 10:32:29 30° 74° (ENE) 10:36:16 437.445
QB50P2 04 Mar 10:31:38 10:35:45 48° 76° (ENE) 10:39:54 145.880/145.840
GONETS M04 04 Mar 10:32:02 10:39:57 38° 271° (W) 10:47:41
RS-15 04 Mar 10:35:38 10:45:56 35° 252° (WSW) 10:56:11 29.354- 29.394
DX 1 04 Mar 10:36:36 10:40:58 86° 286° (WNW) 10:45:18 434.975-435.025
DUCHIFAT 1 04 Mar 10:44:59 10:49:15 71° 77° (ENE) 10:53:30 145.980
CUBEBUG 1 04 Mar 10:46:49 10:49:25 16° 94° (E) 10:52:11 437.445
AISAT 04 Mar 10:48:03 10:52:17 45° 99° (E) 10:56:31 437.250
HUMSAT D 04 Mar 10:48:59 10:53:06 72° 101° (E) 10:57:14 437.325/437.525
TIGRISAT 04 Mar 10:52:51 10:57:08 45° 261° (W) 11:01:19 435.000
VELOX 1 04 Mar 10:56:37 11:00:59 57° 100° (E) 11:05:19 145.980
FUNcube-1 04 Mar 10:57:55 11:01:50 40° 284° (WNW) 11:05:45 145.935
ZACube-1 04 Mar 10:59:53 11:03:44 37° 285° (WNW) 11:07:36 437.345
CUSAT 1 04 Mar 11:01:29 11:03:54 31° 82° (E) 11:06:37 437.405
DELFI C3 04 Mar 11:02:44 11:05:45 19° 287° (WNW) 11:08:39 145.870
UKube-1 04 Mar 11:04:10 11:08:14 40° 285° (WNW) 11:12:15 .
POPSAT HIP 1 04 Mar 11:06:57 11:11:12 58° 260° (W) 11:15:25 437.405
POLYITAN 1 04 Mar 11:07:23 11:11:36 56° 260° (W) 11:15:49 437.675
ANTELSAT 04 Mar 11:07:55 11:11:48 29° 263° (W) 11:15:34 437.575/2403.000
ESTCUBE 1 04 Mar 11:18:52 11:23:15 47° 100° (E) 11:27:37 437.505/2401.250
UWE-3 04 Mar 11:24:18 11:26:50 15° 288° (WNW) 11:29:13 435.000/436.395/437.385
NANOSAT C BR1 04 Mar 11:29:58 11:33:45 29° 263° (W) 11:37:28 145.865
SO-50 04 Mar 11:37:22 11:42:01 42° 247° (WSW) 11:46:35 436.795
50 SAT 04 Mar 12:03:47 12:06:27 17° 287° (WNW) 12:08:57 437.505
BUGSAT 1 04 Mar 12:05:27 12:08:02 15° 266° (W) 12:10:27 437.445
QB50P1 04 Mar 12:06:05 12:07:24 11° 268° (W) 12:08:24 145.935-145.965
CUBEBUG 1 04 Mar 12:22:00 12:25:52 30° 286° (WNW) 12:29:39 437.445
AISAT 04 Mar 12:27:02 12:28:34 11° 290° (WNW) 12:29:48 437.250
Oscar 19 04 Mar 12:31:18 12:35:26 26° 72° (ENE) 12:39:41 437.125/150
TISAT 1 04 Mar 12:43:48 12:48:01 88° 284° (WNW) 12:52:13 437.305
SPROUT 04 Mar 12:46:28 12:50:44 72° 283° (WNW) 12:54:59 437.525
ESTCUBE 1 04 Mar 12:58:01 12:59:46 12° 290° (WNW) 13:01:14 437.505/2401.250
SWISSCUBE 04 Mar 13:13:02 13:16:58 26° 96° (E) 13:20:58 437.505
BEESAT 04 Mar 13:21:09 13:25:16 29° 97° (E) 13:29:27 436.000
ITUPSAT 1 04 Mar 13:49:13 13:54:00 62° 101° (E) 13:58:45 437.325
Gurwin Techsat 1B 04 Mar 13:55:30 14:00:30 44° 74° (ENE) 14:05:32 435.225
Oscar 19 04 Mar 14:10:24 14:14:43 26° 264° (W) 14:18:56 437.125/150
ITAMSAT 1 04 Mar 14:11:50 14:17:03 88° 256° (WSW) 14:22:19 435.822/435.867
VERMONT LUNAR 04 Mar 14:26:46 14:28:11 12° 139° (SE) 14:29:43 437.305
KKS-1 04 Mar 14:38:30 14:42:33 36° 98° (E) 14:46:38 437.445
STARS 04 Mar 14:40:53 14:44:18 23° 96° (E) 14:47:48 437.465
SWISSCUBE 04 Mar 14:50:53 14:54:44 23° 288° (WNW) 14:58:26 437.505
BEESAT 04 Mar 14:59:21 15:02:58 21° 289° (WNW) 15:06:25 436.000
AO-7 04 Mar 15:14:56 15:22:49 50° 69° (ENE) 15:30:47 29.400- 29.500
YUBILEINY 04 Mar 15:19:01 15:26:22 33° 88° (E) 15:34:01 435.215
HORYU 2 04 Mar 15:33:21 15:37:44 62° 259° (W) 15:42:07 437.375
Gurwin Techsat 1B 04 Mar 15:37:21 15:40:42 16° 267° (W) 15:43:47 435.225
BEESAT 3 04 Mar 15:46:57 15:50:00 21° 111° (ESE) 15:53:11 437.485
JAS-2 04 Mar 16:01:46 16:07:00 58° 74° (ENE) 16:12:49 435.910
VERMONT LUNAR 04 Mar 16:02:20 16:05:48 74° 329° (NNW) 16:09:17 437.305
MOZHAYETS 4 04 Mar 16:05:37 16:07:45 14° 92° (E) 16:10:12
BEESAT 2 04 Mar 16:13:56 16:17:44 39° 113° (ESE) 16:21:37 435.950
KKS-1 04 Mar 16:16:28 16:18:56 14° 289° (WNW) 16:21:12 437.445
STARS 04 Mar 16:17:18 16:20:41 21° 288° (WNW) 16:23:56 437.465
PHONESAT 2.4 04 Mar 16:20:24 16:23:58 64° 146° (SE) 16:27:35 2401.200-2431.200
ISS 04 Mar 16:22:31 16:25:44 71° 229° (SW) 16:28:56 145.825
M-CUBED/EXP-1 PRIME 04 Mar 16:23:05 16:27:03 31° 102° (ESE) 16:31:16 437.505
AUBIESAT-1 04 Mar 16:23:28 16:27:17 27° 102° (ESE) 16:31:20 437.475
AIST 2 04 Mar 16:23:53 16:26:30 17° 110° (ESE) 16:29:18 435.215
AO-7 04 Mar 17:08:50 17:15:50 28° 263° (W) 17:22:35 29.400- 29.500
YUBILEINY 04 Mar 17:14:57 17:23:03 40° 282° (WNW) 17:31:05 435.215
BEESAT 3 04 Mar 17:24:46 17:28:00 22° 304° (WNW) 17:31:12 437.485
MOZHAYETS 4 04 Mar 17:40:50 17:45:11 40° 285° (WNW) 17:49:30
VERMONT LUNAR 04 Mar 17:41:44 17:44:06 17° 344° (NNW) 17:46:25 437.305
JAS-2 04 Mar 17:50:44 17:52:51 12° 272° (W) 17:54:35 435.910
BEESAT 2 04 Mar 17:54:04 17:56:08 13° 307° (NW) 17:58:01 435.950
Cubesat XI-IV 04 Mar 17:54:26 17:59:43 64° 76° (ENE) 18:05:04 437.490
AUBIESAT-1 04 Mar 17:58:31 18:01:59 22° 291° (WNW) 18:05:30 437.475
M-CUBED/EXP-1 PRIME 04 Mar 17:58:31 18:01:48 20° 291° (WNW) 18:05:05 437.505
AIST 1 04 Mar 17:58:38 18:02:23 28° 79° (E) 18:06:10
PHONESAT 2.4 04 Mar 17:59:40 18:02:38 23° 340° (NNW) 18:05:35 2401.200-2431.200
AIST 2 04 Mar 18:01:09 18:04:55 30° 302° (WNW) 18:08:39 435.215
PRISM 04 Mar 18:01:18 18:03:54 16° 95° (E) 18:06:41 437.425
CUTE-I 04 Mar 18:02:43 18:08:04 78° 77° (ENE) 18:13:28 437.470
CUBESAT XI-V 04 Mar 18:09:12 18:12:50 23° 95° (E) 18:16:34 437.345
STRAND 1 04 Mar 19:05:00 19:10:03 57° 100° (E) 19:15:05 437.568
GOMX 1 04 Mar 19:22:03 19:24:18 13° 71° (ENE) 19:26:51 467.674
VERMONT LUNAR 04 Mar 19:22:16 19:22:56 10° 1° (N) 19:23:37 437.305
BRITE-PL 04 Mar 19:26:02 19:30:24 24° 73° (ENE) 19:34:50 437.365/2234.400
PRISM 04 Mar 19:35:49 19:39:26 27° 287° (WNW) 19:42:59 437.425
AIST 1 04 Mar 19:37:06 19:39:50 16° 270° (W) 19:42:22
Cubesat XI-IV 04 Mar 19:38:57 19:40:19 11° 269° (W) 19:41:14 437.490
PHONESAT 2.4 04 Mar 19:40:38 19:41:57 12° 356° (N) 19:43:16 2401.200-2431.200
DOVE 4 04 Mar 19:45:58 19:48:49 16° 72° (ENE) 19:51:51 437.250
CUBESAT XI-V 04 Mar 19:46:23 19:50:14 25° 287° (WNW) 19:53:58 437.345
PCSat 04 Mar 19:47:27 19:52:44 58° 111° (ESE) 19:58:05 145.827
O/OREOS (USA 219) 04 Mar 19:48:32 19:53:04 62° 254° (WSW) 19:57:32 437.305
SEEDS 04 Mar 19:49:54 19:52:08 15° 72° (ENE) 19:54:35 437.485
CANX-2 04 Mar 19:55:30 19:58:51 24° 74° (ENE) 20:02:16 2200.000
HO-68 04 Mar 19:59:22 20:06:01 45° 71° (ENE) 20:12:46 435.675
CUTE 1.7 + AOD 2 04 Mar 20:13:14 20:17:04 36° 75° (ENE) 20:20:58 437.475
UWE-3 04 Mar 20:39:53 20:41:06 11° 71° (ENE) 20:42:35 435.000/436.395/437.385
STRAND 1 04 Mar 20:46:37 20:48:50 12° 292° (WNW) 20:50:45 437.568
AAUSAT CUBESAT 2 04 Mar 20:48:28 20:52:32 59° 77° (ENE) 20:56:36 437.432
COMPASS 1 04 Mar 20:52:45 20:56:54 81° 78° (ENE) 21:01:04 437.405
GOMX 1 04 Mar 20:56:44 21:02:06 58° 260° (W) 21:07:14 467.674
Oscar 11 04 Mar 20:57:34 21:01:23 32° 74° (ENE) 21:05:15 145.826/435.025
VERMONT LUNAR 04 Mar 20:59:20 21:01:46 18° 17° (NNE) 21:04:13 437.305
BRITE-PL 04 Mar 21:03:35 21:08:45 34° 263° (W) 21:13:42 437.365/2234.400
CINEMA 3 04 Mar 21:12:50 21:17:40 76° 79° (ENE) 21:22:19 145.822/145.860
CUBEBUG 2 04 Mar 21:18:54 21:23:14 45° 76° (ENE) 21:27:27 437.445
PHONESAT 2.4 04 Mar 21:19:11 21:21:25 15° 13° (NNE) 21:23:39 2401.200-2431.200
DOVE 4 04 Mar 21:21:21 21:26:20 45° 261° (W) 21:31:05 437.250
SEEDS 04 Mar 21:24:02 21:27:45 30° 263° (W) 21:31:25 437.485
DX 1 04 Mar 21:25:39 21:29:32 33° 74° (ENE) 21:33:30 434.975-435.025
GONETS M04 04 Mar 21:27:11 21:35:26 52° 91° (E) 21:43:46
CANX-2 04 Mar 21:31:45 21:34:46 18° 265° (W) 21:37:39 2200.000
PCSat 04 Mar 21:33:33 21:36:37 15° 307° (NW) 21:39:25 145.827
HUMSAT D 04 Mar 21:35:09 21:38:14 20° 73° (ENE) 21:41:23 437.325/437.525
AISAT 04 Mar 21:40:18 21:43:19 19° 72° (ENE) 21:46:30 437.250
DELFI C3 04 Mar 21:42:44 21:46:45 81° 259° (WSW) 21:50:48 145.870
FUNcube-1 04 Mar 21:46:29 21:50:50 63° 77° (ENE) 21:55:05 145.935
HO-68 04 Mar 21:48:07 21:53:55 25° 264° (W) 21:59:30 435.675
VELOX 1 04 Mar 21:48:18 21:51:42 22° 72° (ENE) 21:55:14 145.980
ZACube-1 04 Mar 21:48:34 21:52:57 68° 77° (ENE) 21:57:14 437.345
CUTE 1.7 + AOD 2 04 Mar 21:51:26 21:53:11 12° 268° (W) 21:54:41 437.475
UKube-1 04 Mar 21:51:50 21:56:08 68° 77° (ENE) 22:00:28 .
ESTCUBE 1 04 Mar 22:12:49 22:15:56 19° 72° (ENE) 22:19:13 437.505/2401.250
UWE-3 04 Mar 22:13:03 22:17:21 45° 261° (W) 22:21:33 435.000/436.395/437.385
QB50P1 04 Mar 22:21:40 22:23:03 12° 92° (E) 22:24:42 145.935-145.965
QB50P2 04 Mar 22:25:42 22:27:47 14° 93° (E) 22:30:06 145.880/145.840
UNISAT 6 04 Mar 22:27:39 22:31:29 31° 98° (E) 22:35:24 437.425
JUGNU 04 Mar 22:32:36 22:33:05 10° 160° (SSE) 22:33:45 437.505
Oscar 11 04 Mar 22:35:18 22:37:41 14° 267° (W) 22:39:51 145.826/435.025
VERMONT LUNAR 04 Mar 22:36:31 22:40:00 85° 30° (NNE) 22:43:28 437.305
RS-15 04 Mar 22:36:57 22:47:44 69° 113° (ESE) 22:58:35 29.354- 29.394
DUCHIFAT 1 04 Mar 22:37:57 22:40:55 19° 95° (E) 22:44:01 145.980
50 SAT 04 Mar 22:42:13 22:46:13 75° 259° (W) 22:50:10 437.505
TIGRISAT 04 Mar 22:51:13 22:55:29 61° 100° (E) 22:59:49 435.000
PHONESAT 2.4 04 Mar 22:56:50 23:00:23 53° 28° (NNE) 23:03:55 2401.200-2431.200
CUBEBUG 2 04 Mar 22:58:37 23:00:08 11° 267° (W) 23:01:18 437.445
POPSAT HIP 1 04 Mar 22:59:29 23:03:23 38° 98° (E) 23:07:18 437.405
POLYITAN 1 04 Mar 23:00:07 23:04:04 39° 99° (E) 23:08:02 437.675
DX 1 04 Mar 23:03:17 23:05:54 15° 266° (W) 23:08:18 434.975-435.025
ANTELSAT 04 Mar 23:06:04 23:10:25 83° 283° (WNW) 23:14:50 437.575/2403.000
CUBEBUG 1 04 Mar 23:10:31 23:14:58 90° 297° (WNW) 23:19:26 437.445
HUMSAT D 04 Mar 23:10:37 23:13:55 22° 264° (W) 23:17:06 437.325/437.525
AISAT 04 Mar 23:15:50 23:19:46 28° 263° (W) 23:23:38 437.250
NANOSAT C BR1 04 Mar 23:21:28 23:25:41 77° 101° (E) 23:29:52 145.865
VELOX 1 04 Mar 23:24:34 23:28:12 23° 264° (W) 23:31:44 145.980
GONETS M04 04 Mar 23:25:37 23:32:40 26° 287° (WNW) 23:39:21
TISAT 1 04 Mar 23:29:45 23:33:21 27° 74° (ENE) 23:37:01 437.305
SPROUT 04 Mar 23:33:57 23:37:52 34° 75° (ENE) 23:41:50 437.525
DANDE 04 Mar 23:44:21 23:51:33 61° 97° (E) 23:57:04 436.750
ESTCUBE 1 04 Mar 23:48:47 23:52:39 27° 263° (W) 23:56:30 437.505/2401.250
BUGSAT 1 04 Mar 23:53:03 23:57:06 55° 284° (WNW) 00:01:03 437.445
QB50P1 04 Mar 23:55:13 23:59:08 37° 285° (WNW) 00:02:59 145.935-145.965
QB50P2 05 Mar 00:00:03 00:03:49 31° 286° (WNW) 00:07:32 145.880/145.840
CUSAT 1 05 Mar 00:00:40 00:07:29 77° 277° (W) 00:12:36 437.405
UNISAT 6 05 Mar 00:05:22 00:08:05 16° 288° (WNW) 00:10:38 437.425
SO-50 05 Mar 00:05:40 00:09:12 24° 111° (ESE) 00:12:56 436.795
DUCHIFAT 1 05 Mar 00:13:23 00:16:44 23° 287° (WNW) 00:19:58 145.980
SWISSCUBE 05 Mar 00:14:31 00:16:50 14° 70° (ENE) 00:19:24 437.505
VERMONT LUNAR 05 Mar 00:16:55 00:17:36 10° 221° (SW) 00:18:08 437.305
JUGNU 05 Mar 00:17:05 00:21:39 24° 166° (SSE) 00:26:18 437.505
BEESAT 05 Mar 00:22:16 00:24:59 16° 70° (ENE) 00:27:55 436.000
SRMSAT 05 Mar 00:25:12 00:27:36 13° 160° (SSE) 00:30:10 437.500
PHONESAT 2.4 05 Mar 00:36:03 00:38:39 18° 220° (SW) 00:41:09 2401.200-2431.200
POPSAT HIP 1 05 Mar 00:37:14 00:38:59 12° 289° (WNW) 00:40:30 437.405
POLYITAN 1 05 Mar 00:38:08 00:39:42 12° 289° (WNW) 00:41:01 437.675
ITUPSAT 1 05 Mar 00:49:37 00:53:48 32° 73° (ENE) 00:58:04 437.325
Oscar 19 05 Mar 00:50:33 00:53:32 16° 93° (E) 00:56:48 437.125/150
RS-15 05 Mar 00:52:00 01:01:03 28° 313° (NW) 01:09:47 29.354- 29.394
TISAT 1 05 Mar 01:06:17 01:09:11 17° 266° (W) 01:11:54 437.305
SPROUT 05 Mar 01:11:48 01:14:06 14° 267° (W) 01:16:10 437.525
DANDE 05 Mar 01:30:58 01:34:49 15° 283° (WNW) 01:37:49 436.750
KKS-1 05 Mar 01:31:30 01:33:54 15° 71° (ENE) 01:36:31 437.445
SO-50 05 Mar 01:45:49 01:49:39 25° 304° (NW) 01:53:30 436.795
SWISSCUBE 05 Mar 01:49:51 01:54:23 43° 261° (W) 01:58:56 437.505
BEESAT 3 05 Mar 01:49:54 01:53:21 26° 58° (ENE) 01:56:49 437.485
BEESAT 05 Mar 01:58:07 02:02:34 38° 261° (W) 02:07:00 436.000
JUGNU 05 Mar 02:04:55 02:10:16 36° 175° (S) 02:15:41 437.505
SRMSAT 05 Mar 02:11:27 02:16:21 27° 167° (SSE) 02:21:19 437.500
BEESAT 2 05 Mar 02:17:49 02:21:49 48° 61° (ENE) 02:25:45 435.950
Gurwin Techsat 1B 05 Mar 02:19:01 02:23:40 32° 97° (E) 02:28:24 435.225
Oscar 19 05 Mar 02:28:17 02:33:05 41° 286° (WNW) 02:37:52 437.125/150
ITUPSAT 1 05 Mar 02:28:24 02:31:46 18° 266° (W) 02:34:57 437.325
AIST 2 05 Mar 02:29:39 02:32:58 22° 56° (NE) 02:36:19 435.215
ITAMSAT 1 05 Mar 02:31:53 02:37:02 61° 101° (E) 02:42:10 435.822/435.867
KKS-1 05 Mar 03:06:10 03:10:18 35° 262° (W) 03:14:24 437.445
STARS 05 Mar 03:06:22 03:10:44 58° 259° (W) 03:15:06 437.465
JAS-2 05 Mar 03:19:39 03:23:26 15° 90° (E) 03:27:51 435.910
AO-7 05 Mar 03:25:24 03:31:37 24° 96° (E) 03:38:12 29.400- 29.500
BEESAT 3 05 Mar 03:28:29 03:31:17 17° 250° (WSW) 03:33:53 437.485
HORYU 2 05 Mar 03:31:43 03:35:57 43° 99° (E) 03:40:13 437.375
YUBILEINY 05 Mar 03:32:51 03:41:41 75° 83° (E) 03:50:30 435.215
JUGNU 05 Mar 03:53:35 03:58:58 36° 185° (S) 04:04:24 437.505
Gurwin Techsat 1B 05 Mar 03:59:19 04:03:30 23° 289° (WNW) 04:07:31 435.225
SRMSAT 05 Mar 03:59:42 04:05:11 38° 177° (S) 04:10:41 437.500
AIST 2 05 Mar 04:08:10 04:11:30 22° 249° (WSW) 04:14:40 435.215
ITAMSAT 1 05 Mar 04:14:05 04:16:07 12° 292° (WNW) 04:17:47 435.822/435.867
MOZHAYETS 4 05 Mar 04:35:27 04:40:00 83° 75° (ENE) 04:44:35
AUBIESAT-1 05 Mar 04:41:01 04:44:04 35° 257° (WSW) 04:47:11 437.475
M-CUBED/EXP-1 PRIME 05 Mar 04:41:28 04:44:23 29° 258° (WSW) 04:47:21 437.505
PCSat 05 Mar 04:45:06 04:46:46 12° 51° (NE) 04:48:46 145.827
JAS-2 05 Mar 05:01:23 05:09:08 82° 284° (WNW) 05:16:59 435.910
CUBESAT XI-V 05 Mar 05:08:46 05:09:27 10° 70° (ENE) 05:10:28 437.345
HORYU 2 05 Mar 05:10:27 05:12:18 12° 290° (WNW) 05:13:53 437.375
AO-7 05 Mar 05:16:46 05:24:48 56° 290° (WNW) 05:32:46 29.400- 29.500
YUBILEINY 05 Mar 05:32:32 05:37:47 16° 275° (W) 05:42:23 435.215
JUGNU 05 Mar 05:42:54 05:47:37 24° 194° (SSW) 05:52:19 437.505
SRMSAT 05 Mar 05:48:38 05:54:02 35° 187° (S) 05:59:26 437.500
STRAND 1 05 Mar 06:14:07 06:18:51 39° 74° (ENE) 06:23:39 437.568
PRISM 05 Mar 06:18:40 06:22:47 84° 78° (ENE) 06:26:58 437.425
Cubesat XI-IV 05 Mar 06:19:03 06:24:10 47° 99° (E) 06:29:18 437.490
AIST 1 05 Mar 06:21:13 06:24:35 23° 91° (E) 06:28:05
PCSat 05 Mar 06:25:25 06:30:50 74° 248° (WSW) 06:36:13 145.827
CUTE-I 05 Mar 06:27:07 06:32:22 56° 100° (E) 06:37:36 437.470
CUBESAT XI-V 05 Mar 06:41:54 06:46:30 56° 261° (W) 06:51:07 437.345
JAS-2 05 Mar 06:50:01 06:53:23 13° 295° (WNW) 06:56:08 435.910
ISS 05 Mar 07:20:04 07:23:17 85° 317° (NW) 07:26:30 145.825
JUGNU 05 Mar 07:35:01 07:36:14 10° 200° (SSW) 07:37:16 437.505
SRMSAT 05 Mar 07:38:21 07:42:50 22° 195° (SSW) 07:47:15 437.500
HO-68 05 Mar 07:39:26 07:40:10 10° 90° (E) 07:41:40 435.675
RS-15 05 Mar 07:46:49 07:57:24 42° 54° (NE) 08:08:37 29.354- 29.394
GONETS M04 05 Mar 07:48:04 07:53:02 17° 69° (ENE) 07:58:40
STRAND 1 05 Mar 07:54:49 07:58:13 17° 266° (W) 08:01:23 437.568
AIST 1 05 Mar 07:59:01 08:02:13 19° 283° (WNW) 08:05:17
Cubesat XI-IV 05 Mar 08:00:37 08:03:57 16° 291° (WNW) 08:07:01 437.490
CUTE 1.7 + AOD 2 05 Mar 08:07:46 08:08:51 11° 92° (E) 08:10:14 437.475
CUTE-I 05 Mar 08:09:23 08:12:03 13° 292° (WNW) 08:14:22 437.470
O/OREOS (USA 219) 05 Mar 08:14:48 08:18:52 34° 104° (ESE) 08:23:03 437.305
AAUSAT CUBESAT 2 05 Mar 08:39:47 08:42:24 17° 94° (E) 08:45:12 437.432
COMPASS 1 05 Mar 08:44:03 08:47:19 22° 96° (E) 08:50:42 437.405
Oscar 11 05 Mar 08:54:36 08:55:09 10° 92° (E) 08:56:02 145.826/435.025
GOMX 1 05 Mar 09:06:28 09:10:42 75° 100° (E) 09:14:50 467.674
SEEDS 05 Mar 09:14:49 09:19:04 74° 101° (E) 09:23:18 437.485
CINEMA 3 05 Mar 09:15:32 09:19:04 27° 97° (E) 09:22:41 145.822/145.860
BRITE-PL 05 Mar 09:16:13 09:20:24 48° 285° (WNW) 09:24:24 437.365/2234.400
CUBEBUG 2 05 Mar 09:18:24 09:20:42 15° 94° (E) 09:23:14 437.445
HO-68 05 Mar 09:21:35 09:28:48 90° 98° (E) 09:36:01 435.675
UNISAT 6 05 Mar 09:22:13 09:23:56 12° 71° (ENE) 09:25:53 437.425
CANX-2 05 Mar 09:22:37 09:26:51 63° 283° (WNW) 09:31:04 2200.000
DOVE 4 05 Mar 09:27:54 09:32:05 89° 295° (WNW) 09:36:14 437.250
DELFI C3 05 Mar 09:30:11 09:33:27 23° 96° (E) 09:36:47 145.870
